Time,TemperatureF,DewpointF,PressureIn,WindDirection,WindDirectionDegrees,WindSpeedMPH,WindSpeedGustMPH,Humidity,HourlyPrecipIn,Conditions,Clouds,dailyrainin,SolarRadiationWatts/m^2,SoftwareType,DateUTC
2017-05-24 00:00:00,70.8,60.8,29.92,NNW,339,2.0,3.0,71,0.00,,,0.00,32767,WX3IN1Plus v1.46,2017-05-23 22:00:00,
2017-05-24 00:05:00,70.6,60.4,29.92,NNW,339,1.0,1.0,71,0.00,,,0.00,32767,WX3IN1Plus v1.46,2017-05-23 22:05:00,
2017-05-24 00:10:00,70.4,60.8,29.92,North,10,1.0,3.0,72,0.00,,,0.00,32767,WX3IN1Plus v1.46,2017-05-23 22:10:00,
2017-05-24 00:15:00,70.4,60.8,29.92,NNW,327,1.0,3.0,72,0.00,,,0.00,32767,WX3IN1Plus v1.46,2017-05-23 22:15:00,
2017-05-24 00:20:00,70.3,60.4,29.92,NNW,327,1.0,3.0,72,0.00,,,0.00,32767,WX3IN1Plus v1.46,2017-05-23 22:20:00,
2017-05-24 00:25:00,70.2,60.4,29.92,WNW,303,1.0,3.0,72,0.00,,,0.00,32767,WX3IN1Plus v1.46,2017-05-23 22:25:00,
2017-05-24 00:30:00,70.2,60.4,29.92,North,354,1.0,4.0,72,0.00,,,0.00,32767,WX3IN1Plus v1.46,2017-05-23 22:30:00,
2017-05-24 00:35:00,70.4,60.4,29.92,NW,325,2.0,4.0,71,0.00,,,0.00,32767,WX3IN1Plus v1.46,2017-05-23 22:35:00,
2017-05-24 00:40:00,70.6,60.4,29.92,WNW,301,2.0,6.0,71,0.00,,,0.00,32767,WX3IN1Plus v1.46,2017-05-23 22:40:00,
2017-05-24 00:45:00,70.7,60.8,29.92,WNW,291,3.0,6.0,71,0.00,,,0.00,32767,WX3IN1Plus v1.46,2017-05-23 22:45:00,
2017-05-24 00:50:00,70.5,60.4,29.92,NW,326,2.0,4.0,71,0.00,,,0.00,32767,WX3IN1Plus v1.46,2017-05-23 22:50:00,
2017-05-24 00:55:00,70.4,60.8,29.92,North,354,2.0,5.0,72,0.00,,,0.00,32767,WX3IN1Plus v1.46,2017-05-23 22:55:00,
2017-05-24 01:00:00,70.4,60.8,29.92,North,354,2.0,2.0,72,0.00,,,0.00,32767,WX3IN1Plus v1.46,2017-05-23 23:00:00,
2017-05-24 01:05:00,70.4,60.8,29.92,NNW,330,1.0,4.0,72,0.00,,,0.00,32767,WX3IN1Plus v1.46,2017-05-23 23:05:00,
2017-05-24 01:10:00,70.3,60.4,29.92,NNE,25,2.0,3.0,72,0.00,,,0.00,32767,WX3IN1Plus v1.46,2017-05-23 23:10:00,
2017-05-24 01:15:00,70.2,60.4,29.92,NNE,25,1.0,2.0,72,0.00,,,0.00,32767,WX3IN1Plus v1.46,2017-05-23 23:15:00,
2017-05-24 01:20:00,69.9,60.0,29.92,NNE,25,1.0,3.0,72,0.00,,,0.00,32767,WX3IN1Plus v1.46,2017-05-23 23:20:00,
2017-05-24 01:25:00,69.8,60.9,29.92,NNW,330,1.0,4.0,74,0.00,,,0.00,32767,WX3IN1Plus v1.46,2017-05-23 23:25:00,
2017-05-24 01:30:00,69.7,60.4,29.92,NE,53,2.0,6.0,73,0.00,,,0.00,32767,WX3IN1Plus v1.46,2017-05-23 23:30:00,
2017-05-24 01:35:00,69.7,59.9,29.92,NNE,15,2.0,3.0,72,0.00,,,0.00,32767,WX3IN1Plus v1.46,2017-05-23 23:35:00,
2017-05-24 01:40:00,69.5,59.9,29.92,NE,45,1.0,3.0,72,0.00,,,0.00,32767,WX3IN1Plus v1.46,2017-05-23 23:40:00,
2017-05-24 01:45:00,69.4,59.5,29.92,NE,45,0.0,2.0,72,0.00,,,0.00,32767,WX3IN1Plus v1.46,2017-05-23 23:45:00,
2017-05-24 01:50:00,69.2,59.9,29.92,NE,45,0.0,1.0,73,0.00,,,0.00,32767,WX3IN1Plus v1.46,2017-05-23 23:50:00,
2017-05-24 01:55:00,69.1,59.9,29.92,NE,45,0.0,1.0,73,0.00,,,0.00,32767,WX3IN1Plus v1.46,2017-05-23 23:55:00,
2017-05-24 02:00:00,68.8,59.0,29.92,NW,314,1.0,5.0,72,0.00,,,0.00,32767,WX3IN1Plus v1.46,2017-05-24 00:00:00,
2017-05-24 02:05:00,68.6,58.8,29.92,North,4,3.0,5.0,72,0.00,,,0.00,32767,WX3IN1Plus v1.46,2017-05-24 00:05:00,
2017-05-24 02:10:00,68.8,59.0,29.92,NE,43,3.0,3.0,72,0.00,,,0.00,32767,WX3IN1Plus v1.46,2017-05-24 00:10:00,
2017-05-24 02:15:00,68.8,59.0,29.92,NNW,335,1.0,3.0,72,0.00,,,0.00,32767,WX3IN1Plus v1.46,2017-05-24 00:15:00,
2017-05-24 02:20:00,68.8,58.8,29.92,North,354,1.0,3.0,71,0.00,,,0.00,32767,WX3IN1Plus v1.46,2017-05-24 00:20:00,
2017-05-24 02:25:00,68.8,58.8,29.93,North,354,1.0,2.0,71,0.00,,,0.00,32767,WX3IN1Plus v1.46,2017-05-24 00:25:00,
2017-05-24 02:30:00,68.6,58.8,29.93,North,354,2.0,6.0,72,0.00,,,0.00,32767,WX3IN1Plus v1.46,2017-05-24 00:30:00,
2017-05-24 02:35:00,68.5,59.3,29.93,NW,318,2.0,4.0,73,0.00,,,0.00,32767,WX3IN1Plus v1.46,2017-05-24 00:35:00,
2017-05-24 02:40:00,68.4,59.3,29.93,NNE,27,2.0,6.0,73,0.00,,,0.00,32767,WX3IN1Plus v1.46,2017-05-24 00:40:00,
2017-05-24 02:45:00,68.3,59.0,29.93,North,359,2.0,6.0,73,0.00,,,0.00,32767,WX3IN1Plus v1.46,2017-05-24 00:45:00,
2017-05-24 02:50:00,68.3,59.0,29.93,NW,320,2.0,6.0,73,0.00,,,0.00,32767,WX3IN1Plus v1.46,2017-05-24 00:50:00,
2017-05-24 02:55:00,68.2,59.0,29.93,NW,305,2.0,5.0,73,0.00,,,0.00,32767,WX3IN1Plus v1.46,2017-05-24 00:55:00,
2017-05-24 03:00:00,68.1,59.0,29.93,NW,326,3.0,9.0,73,0.00,,,0.00,32767,WX3IN1Plus v1.46,2017-05-24 01:00:00,
2017-05-24 03:05:00,68.1,59.3,29.93,North,349,3.0,5.0,74,0.00,,,0.00,32767,WX3IN1Plus v1.46,2017-05-24 01:05:00,
2017-05-24 03:10:00,68.1,59.3,29.93,NW,313,3.0,8.0,74,0.00,,,0.00,32767,WX3IN1Plus v1.46,2017-05-24 01:10:00,
2017-05-24 03:20:00,68.2,59.3,29.92,NW,308,3.0,5.0,74,0.00,,,0.00,32767,WX3IN1Plus v1.46,2017-05-24 01:20:00,
2017-05-24 03:25:00,68.1,59.3,29.92,West,279,4.0,7.0,74,0.00,,,0.00,32767,WX3IN1Plus v1.46,2017-05-24 01:25:00,
2017-05-24 03:30:00,68.1,59.5,29.92,WNW,301,4.0,7.0,75,0.00,,,0.00,32767,WX3IN1Plus v1.46,2017-05-24 01:30:00,
2017-05-24 03:35:00,67.9,59.0,29.92,WSW,246,3.0,6.0,74,0.00,,,0.00,32767,WX3IN1Plus v1.46,2017-05-24 01:35:00,
2017-05-24 03:40:00,67.6,59.0,29.92,West,268,3.0,7.0,75,0.00,,,0.00,32767,WX3IN1Plus v1.46,2017-05-24 01:40:00,
2017-05-24 03:46:00,67.4,59.3,29.92,WNW,286,3.0,6.0,76,0.00,,,0.00,32767,WX3IN1Plus v1.46,2017-05-24 01:46:00,
2017-05-24 03:51:00,67.3,59.3,29.92,West,278,3.0,5.0,76,0.00,,,0.00,32767,WX3IN1Plus v1.46,2017-05-24 01:51:00,
2017-05-24 03:56:00,67.5,59.5,29.92,WNW,297,3.0,6.0,76,0.00,,,0.00,32767,WX3IN1Plus v1.46,2017-05-24 01:56:00,
2017-05-24 04:01:00,67.8,59.0,29.92,NNW,331,3.0,7.0,75,0.00,,,0.00,32767,WX3IN1Plus v1.46,2017-05-24 02:01:00,
2017-05-24 04:06:00,68.0,59.5,29.92,North,354,3.0,7.0,75,0.00,,,0.00,32767,WX3IN1Plus v1.46,2017-05-24 02:06:00,
2017-05-24 04:11:00,68.0,59.5,29.92,North,354,3.0,7.0,75,0.00,,,0.00,32767,WX3IN1Plus v1.46,2017-05-24 02:11:00,
2017-05-24 04:16:00,67.9,59.3,29.91,NNW,339,2.0,5.0,75,0.00,,,0.00,32767,WX3IN1Plus v1.46,2017-05-24 02:16:00,
2017-05-24 04:21:00,68.0,59.5,29.91,NW,305,2.0,4.0,75,0.00,,,0.00,32767,WX3IN1Plus v1.46,2017-05-24 02:21:00,
2017-05-24 04:26:00,68.0,59.5,29.91,NW,325,3.0,6.0,75,0.00,,,0.00,32767,WX3IN1Plus v1.46,2017-05-24 02:26:00,
2017-05-24 04:31:00,68.1,59.5,29.91,West,262,3.0,5.0,75,0.00,,,0.00,32767,WX3IN1Plus v1.46,2017-05-24 02:31:00,
2017-05-24 04:36:00,68.0,59.3,29.91,NW,320,3.0,6.0,74,0.00,,,0.00,32767,WX3IN1Plus v1.46,2017-05-24 02:36:00,
2017-05-24 04:41:00,67.8,58.8,29.91,WNW,298,3.0,6.0,74,0.00,,,0.00,32767,WX3IN1Plus v1.46,2017-05-24 02:41:00,
2017-05-24 04:46:00,68.0,59.3,29.91,West,272,3.0,6.0,74,0.00,,,0.00,32767,WX3IN1Plus v1.46,2017-05-24 02:46:00,
2017-05-24 04:51:00,68.1,59.3,29.91,West,275,3.0,6.0,74,0.00,,,0.00,32767,WX3IN1Plus v1.46,2017-05-24 02:51:00,
2017-05-24 04:56:00,68.1,59.3,29.91,West,272,3.0,6.0,74,0.00,,,0.00,32767,WX3IN1Plus v1.46,2017-05-24 02:56:00,
2017-05-24 05:01:00,68.2,59.0,29.91,WNW,288,3.0,5.0,73,0.00,,,0.00,32767,WX3IN1Plus v1.46,2017-05-24 03:01:00,
2017-05-24 05:06:00,68.4,58.8,29.91,NNW,330,3.0,5.0,72,0.00,,,0.00,32767,WX3IN1Plus v1.46,2017-05-24 03:06:00,
2017-05-24 05:11:00,68.6,58.8,29.91,West,259,3.0,5.0,72,0.00,,,0.00,32767,WX3IN1Plus v1.46,2017-05-24 03:11:00,
2017-05-24 05:16:00,68.8,58.8,29.91,WNW,286,3.0,6.0,71,0.00,,,0.00,32767,WX3IN1Plus v1.46,2017-05-24 03:16:00,
2017-05-24 05:21:00,68.8,58.8,29.90,West,278,3.0,6.0,71,0.00,,,0.00,32767,WX3IN1Plus v1.46,2017-05-24 03:21:00,
2017-05-24 05:26:00,68.8,58.8,29.90,West,262,3.0,4.0,71,0.00,,,0.00,32767,WX3IN1Plus v1.46,2017-05-24 03:26:00,
2017-05-24 05:31:00,68.8,58.8,29.90,West,276,3.0,4.0,71,0.00,,,0.00,32767,WX3IN1Plus v1.46,2017-05-24 03:31:00,
2017-05-24 05:36:00,68.9,59.0,29.90,WNW,300,3.0,5.0,71,0.00,,,0.00,32767,WX3IN1Plus v1.46,2017-05-24 03:36:00,
2017-05-24 05:41:00,68.6,58.4,29.90,West,281,3.0,6.0,71,0.00,,,0.00,32767,WX3IN1Plus v1.46,2017-05-24 03:41:00,
2017-05-24 05:46:00,68.5,58.4,29.90,WNW,289,4.0,6.0,71,0.00,,,0.00,32767,WX3IN1Plus v1.46,2017-05-24 03:46:00,
2017-05-24 05:51:00,67.9,57.9,29.90,WNW,301,5.0,7.0,71,0.00,,,0.00,32767,WX3IN1Plus v1.46,2017-05-24 03:51:00,
2017-05-24 05:56:00,67.5,57.5,29.90,WNW,289,5.0,8.0,71,0.00,,,0.00,32767,WX3IN1Plus v1.46,2017-05-24 03:56:00,
2017-05-24 06:01:00,67.1,57.3,29.90,WNW,282,5.0,9.0,71,0.00,,,0.00,32767,WX3IN1Plus v1.46,2017-05-24 04:01:00,
2017-05-24 06:06:00,67.0,57.3,29.90,West,274,6.0,8.0,72,0.00,,,0.00,32767,WX3IN1Plus v1.46,2017-05-24 04:06:00,
2017-05-24 06:11:00,67.1,57.5,29.90,WNW,290,6.0,8.0,72,0.00,,,0.00,32767,WX3IN1Plus v1.46,2017-05-24 04:11:00,
2017-05-24 06:16:00,67.5,57.9,29.90,WNW,282,5.0,7.0,72,0.00,,,0.00,32767,WX3IN1Plus v1.46,2017-05-24 04:16:00,
2017-05-24 06:21:00,67.6,57.5,29.90,WNW,283,5.0,7.0,71,0.00,,,0.00,32767,WX3IN1Plus v1.46,2017-05-24 04:21:00,
2017-05-24 06:26:00,67.8,57.0,29.90,WNW,286,5.0,7.0,70,0.00,,,0.00,32767,WX3IN1Plus v1.46,2017-05-24 04:26:00,
2017-05-24 06:31:00,68.0,57.3,29.90,WNW,287,5.0,7.0,69,0.00,,,0.00,32767,WX3IN1Plus v1.46,2017-05-24 04:31:00,
2017-05-24 06:36:00,68.3,57.3,29.90,West,279,4.0,7.0,69,0.00,,,0.00,32767,WX3IN1Plus v1.46,2017-05-24 04:36:00,
2017-05-24 06:41:00,68.7,57.5,29.90,West,278,3.0,6.0,69,0.00,,,0.00,32767,WX3IN1Plus v1.46,2017-05-24 04:41:00,
2017-05-24 06:46:00,68.9,58.2,29.90,West,275,3.0,6.0,69,0.00,,,0.00,32767,WX3IN1Plus v1.46,2017-05-24 04:46:00,
2017-05-24 06:51:00,69.0,58.2,29.90,West,275,2.0,2.0,69,0.00,,,0.00,32767,WX3IN1Plus v1.46,2017-05-24 04:51:00,
2017-05-24 06:56:00,69.2,57.5,29.90,WNW,283,1.0,3.0,68,0.00,,,0.00,32767,WX3IN1Plus v1.46,2017-05-24 04:56:00,